Location: Boursonne
(49.2024°N, 3.0468°E)
Time: 03:17:26
(UTC+00:00)

Cosmos 1503 Rocket - Pass Details

Date: 03 March 2021
Orbit: 753 x 790 km, 74.0° (Epoch: 16 April)

Event Time Altitude Azimuth Distance (km) Brightness Sun altitude
Rises 18:28:00 0° 337° (NNW) 3,234 7.6 -9.6°
Reaches altitude 10° 18:30:24 10° 340° (NNW) 2,300 6.8 -10.0°
Maximum altitude 18:35:36 71° 65° (ENE) 802 3.9 -10.8°
Drops below altitude 10° 18:40:44 10° 149° (SSE) 2,273 6.1 -11.6°
Sets 18:43:06 0° 152° (SSE) 3,193 6.9 -12.0°
